www.pogodaiklimat.ru

Погода и климат >> Архив погоды >> Парагвай >> Парагуари


ПОГОДА в Парагуари

  • Прогноз погоды в Парагуари
  • Монитор погоды в Парагуари

АРХИВ ПОГОДЫ в Парагуари

Время (UTC), дата Ветер
(напр.,м/с)
 
Видим.   Явления Облачность Т
(С)
Тd
(С)
f
(%)
Тe
(С)
Тes
(С)
Комфортность P
(гПа)
Po
(гПа)
Тmin
(С)
Tmax
(С)
R
(мм)
R24
(мм)
S
(см)
21 11.04 штиль 0 20 км 8/0 1500 м
[Ac und]
+27.6 +22.5 74 +36 +37 очень
душно
1012.7 999.5
00 12.04 штиль 0 20 км 8/0 1500 м
[Ac und]
+25.2 +21.9 82 +32 +32 очень
душно
1012.3 998.9 +30.2
03 12.04 штиль 0 20 км 8/0 1500 м
[Ac und]
+23.8 +21.3 86 +30 +30 очень
душно
1012.8 999.4
09 12.04 штиль 0 20 км 10/0 1500 м
[Ac As]
+18.6 +17.6 94 +20 +20 1014.2 1000.5
12 12.04 штиль 0 20 км 8/0 1500 м
[Ac und]
+20.8 +20.3 97 +25 +28 комфорт 1014.4 1000.8 +18.6
15 12.04 штиль 0 20 км ясно +26.8 +20.8 70 +34 +52 опасность
солнечного
удара
1014.5 1001.2
18 12.04 штиль 0 20 км ясно +28.6 +20.4 61 +35 +49 очень
душно
1013.6 1000.4
21 12.04 штиль 0 20 км ясно +25.8 +18.5 64 +31 +31 очень
душно
1013.4 1000.0
00 13.04 штиль 0 20 км ясно +23.8 +18.0 70 +28 +28 душно 1014.1 1000.6 +28.6
03 13.04 Ю 1 20 км ясно +21.8 +18.7 83 +27 +27 душно 1014.6 1001.1
06 13.04 штиль 0 20 км ясно +19.8 +18.3 91 +22 +22 комфорт 1015.3 1001.7
09 13.04 штиль 0 20 км ясно +18.4 +17.7 96 +19 +19 1015.9 1002.2
12 13.04 штиль 0 20 км 8/0 1500 м
[Ac und]
+18.6 +17.3 92 +19 +22 1016.1 1002.4 +17.0
15 13.04 штиль 0 20 км 5/0 1500 м
[Ac und]
+26.4 +19.4 65 +32 +44 очень
душно
1013.8 1000.4
18 13.04 штиль 0 20 км 8/0 1500 м
[Ac und]
+30.4 +22.6 63 +40 +46 очень
душно
1011.4 998.3
21 13.04 штиль 0 20 км 8/0 1500 м
[Ac As]
+28.4 +23.5 75 +39 +39 очень
душно
1011.1 997.9
00 14.04 штиль 0 20 км 8/0 1500 м
[Ac und]
+24.8 +21.9 84 +32 +32 очень
душно
1011.3 998.0 +30.4
03 14.04 штиль 0 20 км 8/0 1500 м
[Ac und]
+23.4 +22.4 94 +32 +32 очень
душно
1011.0 997.6
06 14.04 штиль 0 20 км ясно +21.8 +20.4 92 +28 +28 душно 1011.7 998.2
09 14.04 штиль 0 20 км ясно +18.4 +17.7 96 +19 +19 1013.0 999.3
12 14.04 штиль 0 20 км ясно +21.8 +18.7 83 +27 +32 душно 1013.7 1000.2 +18.0
15 14.04 штиль 0 20 км ясно +28.8 +21.7 66 +37 +56 опасность
солнечного
удара
1014.2 1001.0
18 14.04 штиль 0 20 км ясно +31.8 +23.2 60 +42 +55 опасность
перегрева
1012.4 999.4
21 14.04 штиль 0 20 км ясно +28.2 +22.1 70 +37 +37 очень
душно
1011.9 998.7
00 15.04 штиль 0 20 км ясно +27.6 +22.2 72 +36 +36 очень
душно
1012.3 999.1 +33.4
03 15.04 штиль 0 20 км ясно +25.4 +21.9 81 +33 +33 очень
душно
1012.8 999.5
06 15.04 штиль 0 20 км ясно +23.8 +21.2 85 +30 +30 очень
душно
1013.5 1000.0
09 15.04 штиль 0 20 км ясно +21.8 +20.3 91 +28 +28 душно 1013.9 1000.4
12 15.04 штиль 0 20 км 8/8 300 м
[Sc]
+22.8 +20.2 85 +29 +30 очень
душно
1014.3 1000.8 +21.4
15 15.04 штиль 0 20 км 4/4 1200 м
[Cu hum]
+29.8 +22.6 65 +39 +50 очень
душно
1014.3 1001.1
18 15.04 штиль 0 20 км 8/8 1200 м
[Cu hum Cs]
+32.0 +21.7 55 +41 +43 опасность
перегрева
1012.0 999.0
21 15.04 штиль 0 20 км 9/9 600 м
[Sc]
+30.0 +22.7 65 +40 +40 очень
душно
1011.1 998.0
00 16.04 штиль 0 20 км 8/8 600 м
[Sc]
+27.2 +24.0 83 +38 +38 очень
душно
1011.9 998.6 +33.0
03 16.04 штиль 0 20 км зарница 10/1 1200 м
[Cb cap Ac und]
+25.4 +21.8 80 +33 +33 очень
душно
1013.4 1000.0
06 16.04 штиль 0 20 км 10/10 600 м
[Sc]
+24.0 +22.5 91 +31 +31 очень
душно
1013.5 1000.0
09 16.04 штиль 0 20 км 4/0 1500 м
[Ac und]
+22.0 +20.4 91 +28 +28 душно 1014.5 1001.0
12 16.04 штиль 0 20 км 4/0 2000 м
[Ac trans]
+21.0 +19.4 91 +25 +29 комфорт 1016.5 1002.9 +21.0
15 16.04 ЮВ 2 20 км 4/0 2000 м
[Ac trans]
+24.6 +19.0 71 +30 +40 очень
душно
1017.4 1004.0
18 16.04 штиль 0 20 км 5/5 1200 м
[Cu hum]
+26.8 +19.4 64 +32 +39 очень
душно
1015.3 1002.0
21 16.04 ЮЗ 2 20 км ясно +26.0 +19.8 69 +32 +32 очень
душно
1013.4 1000.0
00 17.04 штиль 0 20 км ясно +22.6 +18.5 78 +28 +28 душно 1014.5 1001.0 +27.4
03 17.04 штиль 0 20 км ясно +20.0 +16.7 81 +22 +22 комфорт 1015.5 1002.0
09 17.04 штиль 0 20 км ясно +16.4 +15.7 96 +16 +16 1014.8 1001.0
12 17.04 Ю 2 10 км дымка 10/10 540 м
[Sc]
+16.4 +15.7 96 +16 +16 1016.7 1002.9 +15.0
15 17.04 Ю 2 20 км 8/8 600 м
[Sc]
+23.0 +14.5 59 +27 +29 душно 1016.7 1003.2
18 17.04 Ю 2 20 км ясно +26.4 +16.0 53 +30 +39 душно 1014.4 1001.0
21 17.04 штиль 0 20 км ясно +26.0 +16.2 55 +29 +30 душно 1012.3 999.0
00 18.04 штиль 0 20 км ясно +22.0 +18.8 82 +27 +27 душно 1013.5 1000.0 +27.0
03 18.04 штиль 0 20 км ясно +19.0 +17.0 88 +20 +20 1013.7 1000.0
09 18.04 штиль 0 20 км ясно +18.0 +16.3 90 +18 +18 1012.7 999.0
12 18.04 штиль 0 20 км ясно +18.0 +17.6 98 +18 +23 1013.7 1000.0 +15.0

 

Местоположение метеостанции Парагуари (Парагвай): широта -25.63 долгота -57.13 высота над уровнем моря 116 м.

В архиве по умолчанию представлена погода в Парагуари за последнюю неделю. Архивные данные за месяц целиком и за предыдущие месяцы, начиная с января 2011 года, Вы можете получить, выбрав интересующий диапазон дат из раскрывающегося списка и нажав кнопку "Ввод!".


*Определитесь, кто Вы:
робот инопланетянин человек

Внимание! Время в таблицах - всемирное. Для получения местного времени необходимо прибавить поправку, которая равна -4 ч.

Смотрите также архив погоды в соседних городах и на ближайших метеорологических станциях:

Погода в Асунсьоне (Парагвай) (57 км)
Погода в Куйкуйо (Парагвай) (67 км)
Погода в Вильяррике (Парагвай) (71 км)
Погода в Коронель-Овьедо (Парагвай) (80 км)
Погода в Каасапе (Парагвай) (99 км)
Погода в Сан Хуан Батистута (Парагвай) (115 км)
Погода в Формосе (Аргентина) (127 км)
Погода в Сан Эстанислао (Парагвай) (130 км)
Погода в Сан-Педро (Парагвай) (175 км)
Погода в Пиларе (Парагвай) (180 км)

Пояснения к столбцам:

Ветер - указаны скорость ветра в м/с - средняя за 10 мин, порывы в срок и между сроками (в фигурных скобках) и направление, откуда дует ветер: С - северный, СВ - северо-восточный, В - восточный, ЮВ - юго-восточный, Ю - южный, ЮЗ - юго-западный, З - западный, СЗ - северо-западный.
Видимость - горизонтальная дальность видимости в метрах или километрах. При видимости от 1 до 10 км при отсутствии осадков обычно наблюдается дымка, при ухудшении видимости до 1 км и менее - туман. В сухую погоду видимость может ухудшаться дымом, пылью или мглою.
Явления - указаны атмосферные явления, наблюдавшиеся в срок или в последний час перед сроком; фигурными скобками обозначены явления, наблюдавшиеся между сроками (за 1-3 часа до срока); квадратными скобками обозначены град или гололедные отложения с указанием их диаметра в мм.
Облачность - указаны через наклонную черту общая и нижняя облачность в баллах и высота нижней границы облаков в метрах; квадратными скобками обозначены формы облаков: Ci - перистые, Cs - перисто-слоистые, Cc - перисто-кучевые, Ac - высококучевые, As - высокослоистые, Sc - слоисто-кучевые, Ns - слоисто-дождевые, Cu - кучевые, Cb - кучево-дождевые. Подробнее классификацию облаков см. в Атласе облаков (PDF).
T - Температура воздуха - температура, измеренная на высоте 2 м над землей.
Td - Температура точки росы - температура, при понижении до которой содержащийся в воздухе водяной пар достигнет насыщения.
f - Относительная влажность воздуха - влажноcть воздуха, измеренная на высоте 2 м над землей.
Te - Эффективная температура - температура, которую ощущает одетый по сезону человек в тени. Характеристика душности погоды. При расчете учитывается влияние влажности воздуха и скорости ветра на теплоощущения человека.
Tes - Эффективная температура на солнце - температура, которую ощущает человек, с поправкой на солнечный нагрев. Характеристика знойности погоды. Зависит от высоты солнца над горизонтом, облачности и скорости ветра. Ночью, в пасмурную погоду, а также при ветре 12 м/с и более поправка равна нулю.
P - Атмосферное давление - приведенное к уровню моря атмосферное давление.
Po - Атмосферное давление - измеренное на уровне метеостанции атмосферное давление.
Tmin - Минимальная температура - минимум температуры воздуха на высоте 2 м над землей.
Tmax - Максимальная температура - максимум температуры воздуха на высоте 2 м над землей.
R - Количество осадков - Количество выпавших осадков за период времени, мм. При наведении курсора мыши на число - период времени, за который выпало указанное количество осадков.
R24 - Количество осадков - Количество выпавших осадков за 24 часа, мм.
S - Снежный покров - Высота снежного покрова, см. При наведении курсора мыши на число - состояние снежного покрова и степень покрытия местности в баллах.